Regional Weather Roundup
Issued by NWS Charleston, SC

Current Version | Previous Version | Graphics & Text | Print | Product List | Glossary On
Versions: 1 2 3 4 5 6 7 8 9 10 11 12 13 14 15 16 17 18 19 20 21 22 23 24 25 26 27 28 29 30 31 32 33 34 35 36 37 38 39 40 41 42 43 44 45 46 47 48 49 50
000
ASUS42 KCHS 251427
RWRCHS

REGIONAL WEATHER ROUNDUP
NATIONAL WEATHER SERVICE CHARLESTON SC
1000 AM EDT SAT APR 25 2015

NOTE: "FAIR" INDICATES FEW OR NO CLOUDS BELOW 12,000 FEET WITH NO
SIGNIFICANT WEATHER AND/OR OBSTRUCTIONS TO VISIBILITY.

NOT ALL STATIONS ARE QUALITY CONTROLLED BY THE NATIONAL
WEATHER SERVICE. USE DATA WITH CAUTION...ESPECIALLY
DEWPOINT OBSERVATIONS.

SCZ027-030-031-034>040-042>050-251500-
...SOUTHEAST SOUTH CAROLINA...

CITY           SKY/WX    TMP DP  RH WIND       PRES   REMARKS
N CHARLESTON   CLOUDY    69  60  73 SE9       29.92F
WATERFRONT PRK   N/A     72 N/A N/A SE10        N/A
MOUNT PLEASANT DRIZZLE   66  64  94 MISG      29.92F
PINOPOLIS      NOT AVBL
MONCKS CORNER  LGT RAIN  64  61  88 CALM      29.93R
SUMMERVILLE    LGT RAIN  64  63  94 CALM      29.93R
BEAUFORT MCAS  CLOUDY    71  63  75 S5        29.92R
BEAUFORT ARPT  CLOUDY    70  64  83 CALM      29.92R
HILTON HEAD IS CLOUDY    72  64  78 S6        29.91F
WALTERBORO     LGT RAIN  63  61  94 CALM      29.94R
ALLENDALE      HVY RAIN  63  61  94 CALM      29.93R

...SOUTHERN MIDLANDS AND PEE DEE...

CITY           SKY/WX    TMP DP  RH WIND       PRES   REMARKS
GEORGETOWN     NOT AVBL
KINGSTREE      NOT AVBL
ORANGEBURG     RAIN      60  57  89 NW3       29.95R FOG
BARNWELL       RAIN      61  59  94 CALM      29.94S
AIKEN          LGT RAIN  55  54  94 S7        29.94F
MANNING        RAIN      59  50  72 CALM      29.95R
COLUMBIA       RAIN      58  55  90 S5        29.93R FOG
SUMTER         LGT RAIN  58  56  91 S3        29.93R
FLORENCE       LGT RAIN  59  54  83 SW6       29.94S
MYRTLE BEACH   CLOUDY    63  55  77 W9        29.95F
N MYRTLE BEACH LGT RAIN  64  54  69 W10       29.94R

$$

GAZ063-065-086>088-099>101-113>116-118-119-134>141-150-251500-
...SOUTHEAST GEORGIA...

CITY           SKY/WX    TMP DP  RH WIND       PRES   REMARKS
SAVANNAH ARPT  CLOUDY    71  64  78 S10       29.90S
HUNTER AAF     CLOUDY    72  67  84 S8        29.87F
FORT STEWART   LGT RAIN  68  64  88 S5        29.87S
STATESBORO       N/A     63  63 100 N3        29.91R
SYLVANIA       HVY RAIN  63  63 100 CALM      29.92R
CLAXTON        HVY RAIN  64  64 100 SE3       29.86F

...CSRA...CENTRAL AND FAR SOUTHEAST GEORGIA...

CITY           SKY/WX    TMP DP  RH WIND       PRES   REMARKS
THOMSON        CLOUDY    60  60 100 CALM      29.89F
AUGUSTA-BUSH   HVY RAIN  57  55  93 SE6       29.92F FOG
AUGUSTA-DANIEL LGT RAIN  58  55  90 E6        29.90F FOG
SWAINSBORO     NOT AVBL
VIDALIA        RAIN      64  63  94 S7        29.84F
EASTMAN        TSTM      64  64 100 N12       29.89R
HAZLEHURST     LGT RAIN  69  67  94 S8G17     29.84S
ALMA           CLOUDY    69  65  86 S12       29.87S
WAYCROSS       CLOUDY    74  69  86 SW13G20   29.88F
JESUP          LGT RAIN  72  68  88 S6        29.88F
BAXLEY         LGT RAIN  70  64  83 S9        29.86F
BRUNSWICK      CLOUDY    75  66  73 S12G18    29.91R
SAINT SIMONS   CLOUDY    73  67  81 S8        29.90F

$$

SCZ027-028-034-036>038-045-046-048>050-GAZ119-141-251500-
...LAKE AND SUPPLEMENTAL COASTAL OBSERVATIONS...

STATION/POSITION TIME  TEMP    WIND        PRES    WAVE   SWELL
                       AIR SEA DIR/SP/G            HT/PER HT/PER/DIR
                 (UTC) (F)     (DEG/KT/KT) (MB)    (FT/S) (FT/S/D)
UPR LAKE MARION  NOT AVBL
WINYAH BAY       1300   63     250/  3     1013.0
LAKE MURRAY      1300   60     190/  9/ 10 1012.9S
ACE BASIN NERRS  NOT AVBL
FORT PULASKI     1300   70 70  140/  5/  8 1013.2F
SAPELO ISLAND    1400   72     160/ 11     1012.0F

$$

ANZ835-935-AMZ111-154-330-350-352-354-370-450-454-472-251500-
...C-MAN AND BUOY OBSERVATIONS...

STATION/POSITION TIME  TEMP    WIND        PRES    WAVE   SWELL
                       AIR SEA DIR/SP/G            HT/PER HT/PER/DIR
                 (UTC) (F)     (DEG/KT/KT) (MB)    (FT/S) (FT/S/D)
BUOY 41004       1350   71 71  180/ 12/ 16 1013.7F   3/ 8   2/ 8
BUOY 41008       1350   70 69  160/ 10/ 12 1013.0F   3/ 8   2/ 70/ 8
FOLLY BEACH CMAN 1400   69     140/  8/  9 1013.2F
CAPERS NEARSHORE 1308   69     180/  4/  6   N/A
FRIPP NEARSHORE  1300   71     150/  8/ 10 1013.2S


STATION/POSITION TIME  TEMP    WIND        PRES    WAVE   SWELL
                       AIR SEA DIR/SP/G            HT/PER HT/PER/DIR
                 (UTC) (F)     (DEG/KT/KT) (MB)    (FT/S) (FT/S/D)
5E ST. MARYS GA  1321      70                N/A     3/14   2/110/14
FRYING PAN BUOY  1350   71 71  210/ 16/ 17 1014.1F   3/ 9   2/ 50/ 9
BUOY 41025       1350   64 71  310/ 16/ 19 1013.6R   4/ 8   2/ 60/ 8
CAPE LOOKOUT NC  1400   65     260/  5/  7 1013.3S
BUOY 41002       1350   65 70  180/  8/ 10 1016.7R   6/ 9   5/ 20/ 9
BUOY 41010       1320   76 79  150/ 10/ 12 1014.9F
ST AUGUSTINE FL  1400   72 69  160/ 10/ 12 1014.1R


$$


USA.gov is the U.S. government's official web portal to all federal, state and local government web resources and services.